Find Gorizont

NORAD ID: 20953 Int'l Des: 1990-102 Owner: MSVYAZ Country: SU operational
MEOCIRCULARGSO

Live Position

Loading 3D Globe...

About Gorizont

Description loading...

Upcoming Passes

Passes for default location (London). Set your location on the main map for personalized predictions.

Altitude History

Loading altitude history...

Two-Line Element Set

1 20953U 90102A 26105.51780814 -.00000291 00000-0 00000-0 0 9992
2 20953 12.7841 337.6813 0004908 347.8156 204.4149 1.00285742129746
Epoch: Apr 15, 2026 • Age: 14 hours

Current Status

Altitude 35769.9 km
Velocity 3.08 km/s
Sub-Earth Point 8.79°N, 139.18°E
Launch Date Nov 23, 1990
Age 35.3 years
Type other

Technical Details

Classification Payload
Mass 2120.00 kg
Dry Mass 2000.00 kg
Total Mass 2120.00 kg
Length 5.50 m
Diameter 3.30 m
Span 9.50 m
Shape Cyl + 2 Pan
Manufacturer NPOPM
Bus Type Gorizont
Phase Status In Orbit
Owner/State MSVYAZ/SU

Most Searched